Cagliari, Italy

2:43 PM CET on December 16, 2017 (GMT +0100)
Elmas Mil

Weather History for LIEE - November, 2013

Change the Weather History Date:

Friday, November 29, 2013

  Actual Average Record
Temperature  
Mean Temperature 44 °F -  
Max Temperature 55 °F 59 °F 71 °F (2014)
Min Temperature 33 °F 44 °F 33 °F (2013)
Degree Days  
Heating Degree Days 21    
Moisture  
Dew Point 39 °F    
Average Humidity 84    
Maximum Humidity 100    
Minimum Humidity 54    
Precipitation  
Precipitation 0.00 in 0.07 in - ()
Sea Level Pressure  
Sea Level Pressure 30.19 in    
Wind  
Wind Speed 6 mph ()    
Max Wind Speed 9 mph    
Max Gust Speed -    
Visibility 6.2 miles    
Events      
Averages and records for this station are not official NWS values.
T = Trace of Precipitation, MM = Missing Value Source: Averaged Metar Reports

Daily Weather History Graph

Daily Weather History Graph

Search for Another Location

Airport or City:

Trip Planner

Search our weather history database for the weather conditions in past years. The results will help you decide how hot, cold, wet, or windy it might be!

Date:

Astronomy

Nov. 29, 2013 Rise Set
Actual Time 7:22 AM CET 5:01 PM CET
Civil Twilight 6:52 AM CET 5:31 PM CET
Nautical Twilight 6:19 AM CET 6:04 PM CET
Astronomical Twilight 5:47 AM CET 6:36 PM CET
Moon 3:11 AM CET (11/29) 2:35 PM CET (11/29)
Length of Visible Light 10h 38m
Length of Day
9h 39m
Waning Crescent, 16% of the Moon is Illuminated
Nov 29
Waning Crescent
Dec 3
New
Dec 9
First Quarter
Dec 17
Full
Dec 25
Last Quarter

Hourly Weather History & Observations

Time (CET) Temp. Windchill Dew Point Humidity Pressure Visibility Wind Dir Wind Speed Gust Speed Precip Events Conditions
12:20 AM 39.2 °F 35.9 °F 37.4 °F 93% 30.24 in 6.2 mi North 4.6 mph - N/A   Partly Cloudy
12:50 AM 39.2 °F 35.0 °F 37.4 °F 93% 30.24 in 6.2 mi NNW 5.8 mph - N/A   Partly Cloudy
1:20 AM 39.2 °F 35.9 °F 37.4 °F 93% 30.21 in 6.2 mi NNW 4.6 mph - N/A   Partly Cloudy
1:50 AM 37.4 °F 32.8 °F 35.6 °F 93% 30.21 in 6.2 mi NW 5.8 mph - N/A   Partly Cloudy
2:20 AM 37.4 °F 32.8 °F 35.6 °F 93% 30.21 in 6.2 mi NW 5.8 mph - N/A   Partly Cloudy
2:50 AM 37.4 °F 31.4 °F 35.6 °F 93% 30.21 in 6.2 mi NNW 8.1 mph - N/A   Partly Cloudy
3:20 AM 37.4 °F 32.1 °F 35.6 °F 93% 30.21 in 6.2 mi NNW 6.9 mph - N/A   Partly Cloudy
3:50 AM 35.6 °F 31.7 °F 33.8 °F 93% 30.21 in 6.2 mi NW 4.6 mph - N/A   Partly Cloudy
4:20 AM 35.6 °F 29.9 °F 35.6 °F 100% 30.21 in 6.2 mi NW 6.9 mph - N/A   Partly Cloudy
4:50 AM 35.6 °F 29.9 °F 33.8 °F 93% 30.21 in - NNW 6.9 mph - N/A   Clear
5:20 AM 35.6 °F 29.9 °F 33.8 °F 93% 30.21 in - NNW 6.9 mph - N/A   Clear
5:50 AM 35.6 °F 29.2 °F 33.8 °F 93% 30.21 in - Variable 8.1 mph - N/A   Clear
6:20 AM 33.8 °F 27.7 °F 33.8 °F 100% 30.21 in - NNW 6.9 mph - N/A   Clear
6:50 AM 33.8 °F 27.7 °F 33.8 °F 100% 30.21 in - NNW 6.9 mph - N/A   Clear
7:20 AM 33.8 °F 29.6 °F 33.8 °F 100% 30.21 in - NNW 4.6 mph - N/A   Clear
7:50 AM 37.4 °F 30.8 °F 35.6 °F 93% 30.21 in - WNW 9.2 mph - N/A   Clear
8:20 AM 35.6 °F 29.2 °F 35.6 °F 100% 30.21 in - NW 8.1 mph - N/A   Clear
8:50 AM 37.4 °F 32.1 °F 35.6 °F 93% 30.24 in - NW 6.9 mph - N/A   Clear
9:20 AM 37.4 °F 31.4 °F 35.6 °F 93% 30.24 in - NNW 8.1 mph - N/A   Clear
9:50 AM 39.2 °F 34.2 °F 37.4 °F 93% 30.24 in - NW 6.9 mph - N/A   Clear
10:20 AM 42.8 °F 38.6 °F 39.2 °F 87% 30.24 in - NW 6.9 mph - N/A   Clear
10:50 AM 44.6 °F 40.2 °F 39.2 °F 81% 30.24 in - NW 8.1 mph - N/A   Clear
11:20 AM 46.4 °F 43.5 °F 41.0 °F 81% 30.24 in - NW 5.8 mph - N/A   Clear
11:50 AM 48.2 °F - 41.0 °F 76% 30.21 in - NW 8.1 mph - N/A   Clear
12:20 PM 51.8 °F - 42.8 °F 71% 30.21 in - WNW 6.9 mph - N/A   Clear
12:50 PM 53.6 °F - 42.8 °F 67% 30.18 in - NW 6.9 mph - N/A   Clear
1:20 PM 53.6 °F - 41.0 °F 62% 30.18 in - WNW 5.8 mph - N/A   Clear
1:50 PM 55.4 °F - 39.2 °F 54% 30.18 in 6.2 mi WNW 5.8 mph - N/A   Partly Cloudy
2:20 PM 55.4 °F - 41.0 °F 58% 30.15 in 6.2 mi WNW 5.8 mph - N/A   Partly Cloudy
2:50 PM 55.4 °F - 41.0 °F 58% 30.15 in 6.2 mi NW 3.5 mph - N/A   Partly Cloudy
3:20 PM 53.6 °F - 41.0 °F 62% 30.15 in 6.2 mi NW 3.5 mph - N/A   Partly Cloudy
3:50 PM 53.6 °F - 41.0 °F 62% 30.15 in 6.2 mi WNW 3.5 mph - N/A   Partly Cloudy
4:20 PM 53.6 °F - 41.0 °F 62% 30.15 in - NW 3.5 mph - N/A   Clear
4:50 PM 53.6 °F - 42.8 °F 67% 30.15 in - NW 3.5 mph - N/A   Clear
5:20 PM 51.8 °F - 42.8 °F 71% 30.15 in - NW 5.8 mph - N/A   Clear
5:50 PM 50.0 °F - 42.8 °F 76% 30.15 in - North 5.8 mph - N/A   Clear
6:20 PM 48.2 °F - 41.0 °F 76% 30.15 in - North 4.6 mph - N/A   Clear
6:50 PM 48.2 °F - 41.0 °F 76% 30.15 in - NNW 4.6 mph - N/A   Clear
7:20 PM 46.4 °F 43.5 °F 41.0 °F 81% 30.15 in - NNW 5.8 mph - N/A   Clear
7:50 PM 44.6 °F 41.4 °F 39.2 °F 81% 30.15 in - NW 5.8 mph - N/A   Clear
8:20 PM 44.6 °F 41.4 °F 39.2 °F 81% 30.15 in - NNW 5.8 mph - N/A   Clear
8:50 PM 44.6 °F 40.7 °F 41.0 °F 87% 30.15 in - NW 6.9 mph - N/A   Clear
9:20 PM 42.8 °F 38.6 °F 39.2 °F 87% 30.15 in - NW 6.9 mph - N/A   Clear
9:50 PM 44.6 °F 40.7 °F 41.0 °F 87% 30.15 in - NW 6.9 mph - N/A   Clear
10:20 PM 42.8 °F 39.3 °F 39.2 °F 87% 30.12 in - NW 5.8 mph - N/A   Clear
10:50 PM 42.8 °F 39.3 °F 41.0 °F 93% 30.12 in - NW 5.8 mph - N/A   Clear
11:20 PM 42.8 °F 38.6 °F 41.0 °F 93% 30.12 in - NW 6.9 mph - N/A   Clear
11:50 PM 41.0 °F 35.8 °F 39.2 °F 93% 30.12 in - NW 8.1 mph - N/A   Clear